QPF
0.00 0.00 0.00 0.00 0.00 0.00 0.00 0.00 0.00 0.00 0.00 0.00 0.00 0.00 0.00 0.00 0.00 0.00 0.00 0.00 0.00 0.00 0.00 0.00 0.00 0.00 0.00 0.00 0.00 0.00 0.00 0.00 0.00 0.00 0.00 0.00 0.00 0.00 0.00 0.00 0.00 0.00 0.00 0.00
0.00 0.00 0.00 0.00 0.00 0.00 0.00 0.00 0.00 0.00 0.00 0.00 0.00 0.00 0.00 0.00 0.00 0.00 0.00 0.00 0.00 0.00 0.00 0.00 0.00 0.00 0.00 0.00 0.00 0.00 0.00 0.00 0.00 0.00 0.00 0.00 0.00 0.00 0.00 0.00 0.00 0.00 0.00 0.00
0.00 0.00 0.00 0.00 0.00 0.00 0.00 0.00 0.00 0.00 0.00 0.00 0.00 0.00 0.00 0.00 0.00 0.00 0.00 0.00 0.00 0.00 0.00 0.00 0.00 0.00 0.00 0.00 0.00 0.00 0.00 0.00 0.00 0.00 0.00 0.00 0.00 0.00 0.00 0.00 0.00 0.00 0.00 0.00
0.00 0.00 0.00 0.00 0.00 0.00 0.00 0.00 0.00 0.00 0.00 0.00 0.00 0.00 0.00 0.00 0.00 0.00 0.00 0.00 0.00 0.00 0.00 0.00 0.00 0.00 0.00 0.00 0.00 0.00 0.00 0.00 0.00 0.00 0.00 0.00 0.00 0.00 0.00 0.00 0.00 0.00 0.00 0.00
0.00 0.00 0.00 0.00 0.00 0.00 0.00 0.00 0.00 0.00 0.00 0.00 0.00 0.00 0.00 0.00 0.00 0.00 0.00 0.00 0.00 0.00 0.00 0.00 0.00 0.00 0.00 0.00 0.00 0.00 0.00 0.00 0.00 0.00 0.00 0.00 0.00 0.00 0.00 0.00 0.00 0.00 0.00 0.00
0.00 0.00 0.00 0.00 0.00 0.00 0.00 0.00 0.00 0.00 0.00 0.00 0.00 0.00 0.00 0.00 0.00 0.00 0.00 0.00 0.00 0.00 0.00 0.00 0.00 0.00 0.00 0.00 0.00 0.00 0.00 0.00 0.00 0.00 0.00 0.00 0.00 0.00 0.00 0.00 0.00 0.00 0.00 0.00
0.00 0.00 0.00 0.00 0.00 0.00 0.00 0.00 0.00 0.00 0.00 0.00 0.00 0.00 0.00 0.00 0.00 0.00 0.00 0.00 0.00 0.00 0.00 0.00 0.00 0.00 0.00 0.00 0.00 0.00 0.00 0.00 0.00 0.00 0.00 0.00 0.00 0.00 0.00 0.00 0.00 0.00 0.00 0.00
0.00 0.00 0.00 0.00 0.00 0.00 0.00 0.00 0.00 0.00 0.00 0.00 0.00 0.00 0.00 0.00 0.00 0.00 0.00 0.00 0.00 0.00 0.00 0.00 0.00 0.00 0.00 0.00 0.00 0.00 0.00 0.00 0.00 0.00 0.00 0.00 0.00 0.00 0.00 0.00 0.00 0.00 0.01 0.01
0.00 0.00 0.00 0.00 0.00 0.00 0.00 0.00 0.00 0.00 0.00 0.00 0.00 0.00 0.00 0.00 0.00 0.00 0.00 0.00 0.00 0.00 0.00 0.00 0.00 0.00 0.00 0.00 0.01 0.00 0.00 0.00 0.00 0.00 0.00 0.00 0.00 0.00 0.00 0.00 0.00 0.00 0.00 0.01
0.00 0.00 0.00 0.00 0.00 0.00 0.00 0.00 0.00 0.00 0.00 0.00 0.00 0.00 0.00 0.00 0.00 0.00 0.00 0.00 0.00 0.00 0.00 0.00 0.00 0.00 0.00 0.01 0.01 0.00 0.00 0.00 0.00 0.00 0.00 0.00 0.00 0.00 0.00 0.00 0.00 0.00 0.00 0.01
0.00 0.00 0.00 0.00 0.00 0.00 0.00 0.00 0.00 0.00 0.00 0.00 0.00 0.00 0.00 0.00 0.00 0.00 0.00 0.00 0.00 0.00 0.00 0.00 0.00 0.00 0.00 0.00 0.00 0.00 0.00 0.00 0.00 0.00 0.00 0.00 0.00 0.00 0.00 0.00 0.00 0.00 0.00 0.01
0.00 0.00 0.00 0.00 0.00 0.00 0.00 0.00 0.00 0.00 0.00 0.00 0.00 0.00 0.00 0.00 0.00 0.00 0.00 0.00 0.00 0.00 0.00 0.00 0.00 0.00 0.00 0.00 0.00 0.00 0.00 0.00 0.00 0.00 0.00 0.00 0.00 0.00 0.00 0.00 0.00 0.00 0.00 0.01
0.00 0.00 0.00 0.00 0.00 0.00 0.00 0.00 0.00 0.00 0.00 0.00 0.00 0.00 0.00 0.00 0.00 0.00 0.00 0.00 0.00 0.00 0.00 0.00 0.00 0.00 0.00 0.00 0.00 0.00 0.00 0.00 0.00 0.00 0.00 0.00 0.00 0.00 0.00 0.00 0.00 0.00 0.00 0.00
0.00 0.00 0.00 0.00 0.00 0.00 0.00 0.00 0.00 0.00 0.00 0.00 0.00 0.00 0.00 0.00 0.00 0.00 0.00 0.00 0.00 0.00 0.00 0.00 0.00 0.00 0.00 0.00 0.00 0.00 0.00 0.00 0.00 0.00 0.00 0.00 0.01 0.00 0.00 0.00 0.00 0.00 0.00 0.00
0.00 0.00 0.00 0.00 0.00 0.00 0.00 0.00 0.00 0.00 0.00 0.00 0.00 0.00 0.00 0.00 0.00 0.00 0.00 0.00 0.00 0.00 0.00 0.00 0.00 0.00 0.00 0.00 0.00 0.00 0.00 0.00 0.00 0.00 0.00 0.00 0.00 0.00 0.00 0.00 0.00 0.00 0.00 0.00
0.00 0.00 0.00 0.00 0.00 0.00 0.00 0.00 0.00 0.00 0.00 0.00 0.00 0.00 0.00 0.00 0.00 0.00 0.00 0.00 0.00 0.00 0.00 0.00 0.00 0.00 0.00 0.00 0.00 0.00 0.00 0.00 0.00 0.00 0.00 0.00 0.00 0.00 0.00 0.00 0.00 0.00 0.00 0.00
0.00 0.00 0.00 0.00 0.00 0.00 0.00 0.00 0.00 0.00 0.00 0.00 0.00 0.00 0.00 0.00 0.00 0.00 0.00 0.00 0.00 0.00 0.00 0.00 0.00 0.00 0.00 0.00 0.00 0.00 0.00 0.00 0.00 0.00 0.00 0.00 0.00 0.00 0.00 0.00 0.00 0.00 0.00 0.00
0.00 0.00 0.00 0.00 0.00 0.00 0.00 0.00 0.00 0.00 0.00 0.00 0.00 0.00 0.00 0.00 0.00 0.00 0.00 0.00 0.00 0.00 0.00 0.00 0.00 0.00 0.00 0.00 0.00 0.00 0.00 0.00 0.00 0.00 0.00 0.00 0.00 0.00 0.00 0.00 0.00 0.00 0.00 0.00
0.00 0.00 0.00 0.00 0.00 0.00 0.00 0.00 0.00 0.00 0.00 0.00 0.00 0.00 0.00 0.00 0.00 0.00 0.00 0.00 0.00 0.00 0.00 0.00 0.00 0.00 0.00 0.00 0.00 0.00 0.00 0.00 0.00 0.00 0.00 0.00 0.00 0.00 0.00 0.00 0.00 0.00 0.00 0.00
0.00 0.00 0.00 0.00 0.00 0.00 0.00 0.00 0.00 0.00 0.00 0.00 0.00 0.00 0.00 0.00 0.00 0.00 0.00 0.00 0.00 0.00 0.00 0.00 0.00 0.00 0.00 0.00 0.00 0.00 0.00 0.00 0.00 0.00 0.00 0.00 0.00 0.00 0.00 0.00 0.00 0.00 0.00 0.00
0.00 0.00 0.00 0.00 0.00 0.00 0.00 0.00 0.00 0.00 0.00 0.00 0.00 0.00 0.00 0.00 0.00 0.00 0.00 0.00 0.00 0.00 0.00 0.00 0.00 0.00 0.00 0.00 0.00 0.00 0.00 0.00 0.00 0.00 0.00 0.00 0.00 0.00 0.00 0.00 0.00 0.00 0.00 0.00
0.00 0.00 0.00 0.00 0.00 0.00 0.00 0.00 0.00 0.00 0.00 0.00 0.00 0.00 0.00 0.00 0.00 0.00 0.00 0.00 0.00 0.00 0.00 0.00 0.00 0.00 0.00 0.00 0.00 0.00 0.00 0.00 0.00 0.00 0.00 0.00 0.00 0.00 0.00 0.00 0.00 0.00 0.00 0.00
0.00 0.00 0.00 0.00 0.00 0.00 0.00 0.00 0.00 0.00 0.00 0.00 0.00 0.00 0.00 0.00 0.00 0.00 0.00 0.00 0.00 0.00 0.00 0.00 0.00 0.00 0.00 0.00 0.00 0.00 0.00 0.00 0.00 0.00 0.00 0.00 0.00 0.00 0.00 0.00 0.00 0.00 0.00 0.00
0.00 0.00 0.00 0.00 0.00 0.00 0.00 0.00 0.00 0.00 0.00 0.00 0.00 0.00 0.00 0.00 0.00 0.00 0.00 0.00 0.00 0.00 0.00 0.00 0.00 0.00 0.00 0.00 0.00 0.00 0.00 0.00 0.00 0.00 0.00 0.00 0.00 0.00 0.00 0.00 0.00 0.00 0.00 0.00
0.00 0.00 0.00 0.00 0.00 0.00 0.00 0.00 0.00 0.00 0.00 0.00 0.00 0.00 0.00 0.00 0.00 0.00 0.00 0.00 0.00 0.00 0.00 0.00 0.00 0.00 0.00 0.00 0.00 0.00 0.00 0.00 0.00 0.00 0.00 0.00 0.00 0.00 0.00 0.00 0.00 0.00 0.00 0.00
0.00 0.00 0.00 0.00 0.00 0.00 0.00 0.00 0.00 0.00 0.00 0.00 0.00 0.00 0.00 0.00 0.00 0.00 0.00 0.00 0.00 0.00 0.00 0.00 0.00 0.00 0.00 0.00 0.00 0.00 0.00 0.00 0.00 0.00 0.00 0.00 0.00 0.00 0.00 0.00 0.00 0.00 0.00 0.00
MSLP
1015.40 1015.55 1016.26 1016.61 1016.59 1016.82 1017.35 1018.21 1019.36 1020.80 1021.24 1021.84 1023.02 1023.54 1024.21 1024.37 1024.19 1024.28 1024.45 1024.58 1024.61 1024.59 1024.55 1024.19 1023.94 1023.73 1023.70 1023.67 1023.51 1023.24 1022.91 1022.77 1022.41 1021.79 1021.26 1020.65 1020.37 1020.14 1019.76 1019.60 1019.50 1019.08 1018.90 1018.30
1016.18 1016.70 1017.37 1017.41 1017.43 1017.55 1018.06 1018.97 1020.11 1021.04 1021.45 1022.12 1023.44 1023.95 1024.48 1024.68 1025.01 1025.33 1025.55 1025.64 1025.62 1025.41 1025.13 1024.82 1024.48 1024.33 1024.19 1024.24 1024.17 1023.90 1023.77 1023.50 1023.22 1022.86 1022.47 1022.00 1021.50 1020.91 1020.59 1020.11 1019.90 1019.60 1019.13 1018.56
1016.72 1017.59 1017.70 1017.82 1018.07 1018.31 1018.86 1019.24 1020.03 1020.68 1021.80 1022.66 1023.04 1024.06 1024.41 1025.05 1025.64 1026.14 1026.46 1026.76 1026.67 1026.42 1025.91 1025.44 1024.99 1024.78 1024.74 1024.72 1024.69 1024.53 1024.41 1024.30 1024.11 1024.02 1023.43 1023.03 1022.45 1021.64 1021.40 1021.22 1020.76 1020.17 1019.47 1018.84
1017.72 1018.00 1018.08 1018.27 1018.58 1018.90 1019.33 1019.71 1020.07 1020.51 1020.91 1021.85 1022.52 1023.03 1024.14 1025.00 1026.07 1026.67 1027.15 1027.25 1027.21 1026.94 1026.56 1026.14 1025.96 1025.61 1025.63 1025.89 1025.94 1025.58 1025.26 1025.23 1025.11 1025.07 1024.49 1024.02 1023.57 1022.95 1022.60 1022.23 1021.68 1020.66 1020.10 1019.53
1018.69 1018.53 1018.64 1018.86 1019.19 1019.30 1019.92 1020.07 1020.27 1020.52 1020.84 1021.36 1022.10 1022.70 1023.70 1024.87 1026.22 1027.26 1027.81 1027.97 1027.95 1027.78 1027.44 1027.06 1026.71 1026.52 1026.41 1026.53 1026.63 1026.24 1025.90 1025.91 1025.65 1025.46 1025.21 1024.79 1024.36 1024.29 1023.59 1022.96 1022.10 1021.49 1020.77 1020.11
1019.18 1019.14 1019.30 1019.43 1019.59 1019.78 1020.13 1020.36 1020.61 1020.90 1021.14 1021.37 1021.91 1022.79 1024.35 1025.77 1027.13 1027.93 1028.37 1028.52 1028.50 1028.31 1028.07 1027.82 1027.43 1027.21 1027.05 1027.25 1027.21 1026.78 1026.35 1026.41 1026.26 1026.04 1025.81 1025.55 1025.29 1024.79 1024.20 1023.63 1023.00 1022.23 1021.34 1020.71
1020.04 1020.02 1019.97 1019.94 1019.94 1020.22 1020.16 1020.47 1020.77 1021.00 1021.17 1021.32 1022.42 1023.45 1025.49 1027.20 1028.14 1028.63 1028.84 1028.94 1028.93 1028.84 1028.53 1028.14 1027.88 1027.49 1027.82 1027.95 1027.93 1027.51 1027.13 1026.90 1026.63 1026.50 1026.46 1026.22 1026.02 1025.58 1025.13 1024.55 1023.80 1022.79 1022.04 1021.26
1021.24 1021.09 1020.88 1020.67 1020.81 1020.92 1021.04 1021.19 1021.30 1021.33 1021.73 1022.15 1022.94 1024.19 1026.09 1027.75 1028.59 1029.09 1029.36 1029.34 1029.40 1029.38 1029.20 1028.95 1028.65 1028.27 1028.25 1028.52 1028.40 1028.01 1027.56 1027.34 1027.23 1026.96 1026.98 1027.01 1026.71 1026.17 1025.77 1025.22 1024.48 1023.74 1023.03 1022.10
1022.18 1021.92 1021.65 1021.56 1021.47 1021.57 1021.77 1021.98 1022.41 1022.40 1023.21 1023.24 1023.61 1025.49 1027.21 1028.03 1028.79 1029.29 1029.45 1029.53 1029.64 1029.71 1029.56 1029.51 1029.25 1028.89 1028.51 1028.75 1028.86 1028.65 1028.28 1028.20 1028.06 1027.74 1027.53 1027.28 1027.04 1026.71 1026.25 1025.70 1025.12 1024.40 1023.63 1022.75
1023.04 1022.66 1022.45 1022.26 1022.15 1022.31 1022.14 1022.71 1022.95 1023.07 1023.36 1023.52 1023.81 1025.12 1025.77 1027.91 1028.77 1029.32 1029.46 1029.78 1030.04 1030.12 1030.13 1029.99 1029.69 1029.51 1029.37 1028.95 1029.11 1029.16 1029.16 1029.04 1028.84 1028.39 1028.19 1027.93 1027.51 1027.01 1026.60 1026.23 1025.65 1024.96 1024.23 1023.48
1023.40 1023.45 1023.47 1023.15 1023.41 1023.34 1023.23 1023.30 1023.79 1024.00 1024.25 1024.22 1024.62 1025.11 1026.96 1028.39 1029.44 1029.99 1030.31 1030.68 1030.80 1030.76 1030.61 1030.36 1030.18 1029.94 1029.44 1029.15 1029.36 1029.85 1029.87 1029.41 1029.22 1029.20 1028.90 1028.43 1027.92 1027.50 1027.13 1026.69 1026.16 1025.66 1024.97 1024.10
1024.39 1024.30 1024.09 1024.34 1024.52 1024.40 1024.20 1024.22 1024.30 1024.43 1024.93 1025.37 1026.11 1026.27 1027.74 1029.09 1029.95 1030.69 1031.04 1031.37 1031.49 1031.35 1031.02 1030.56 1030.43 1030.10 1030.01 1030.19 1030.24 1030.23 1030.20 1029.84 1029.86 1029.70 1029.32 1028.73 1028.32 1028.13 1027.66 1027.23 1026.84 1026.38 1025.54 1024.64
1024.66 1024.86 1024.73 1024.76 1025.06 1024.92 1024.96 1025.18 1025.28 1025.39 1025.48 1025.40 1026.13 1026.55 1028.21 1029.36 1030.18 1031.01 1031.36 1031.65 1031.79 1031.58 1031.25 1031.00 1030.72 1030.49 1030.99 1030.96 1031.08 1030.70 1030.56 1030.39 1030.26 1029.86 1029.44 1029.08 1028.88 1028.65 1028.41 1028.07 1027.58 1027.03 1026.13 1025.33
1025.03 1025.34 1025.02 1024.92 1025.10 1025.44 1025.69 1025.80 1025.89 1025.66 1025.79 1025.41 1025.39 1026.46 1028.18 1029.43 1030.36 1031.13 1031.69 1032.04 1031.98 1032.22 1032.14 1031.80 1031.44 1031.64 1031.84 1031.75 1031.81 1031.46 1031.12 1030.93 1030.69 1030.31 1030.00 1029.77 1029.60 1029.33 1028.94 1028.59 1028.16 1027.56 1026.84 1026.08
1025.55 1025.65 1025.78 1025.56 1025.73 1026.02 1026.00 1025.79 1025.88 1025.94 1025.69 1025.79 1025.65 1026.68 1027.97 1029.51 1030.47 1031.33 1031.92 1032.19 1032.22 1032.55 1032.60 1032.59 1032.50 1032.65 1032.51 1032.61 1032.45 1032.18 1031.89 1031.59 1031.46 1031.18 1030.85 1030.58 1030.34 1030.05 1029.68 1029.19 1028.67 1028.09 1027.53 1026.91
1026.22 1026.25 1026.34 1026.26 1026.54 1026.58 1026.23 1025.45 1025.84 1026.22 1026.17 1025.98 1026.45 1027.04 1028.28 1029.66 1030.73 1031.44 1032.04 1032.46 1032.49 1032.76 1032.99 1033.41 1033.37 1033.38 1033.13 1033.10 1032.99 1032.74 1032.43 1032.32 1032.12 1031.78 1031.52 1031.25 1030.93 1030.63 1030.27 1029.84 1029.35 1028.87 1028.21 1027.56
1026.56 1026.68 1026.95 1026.69 1026.75 1026.37 1025.84 1025.07 1025.45 1025.63 1025.84 1025.85 1026.37 1027.12 1028.51 1029.81 1030.74 1031.53 1032.12 1032.72 1032.93 1033.00 1033.24 1033.74 1033.88 1033.84 1033.66 1033.44 1033.34 1033.32 1033.29 1033.06 1032.81 1032.46 1032.28 1031.99 1031.67 1031.28 1030.94 1030.58 1030.04 1029.38 1028.92 1028.29
1026.74 1027.10 1027.53 1027.46 1027.20 1026.49 1025.33 1025.35 1025.51 1025.66 1025.90 1026.42 1026.88 1027.70 1028.84 1029.91 1030.87 1031.76 1032.06 1032.44 1033.10 1033.42 1033.76 1034.39 1034.63 1034.43 1034.14 1033.87 1033.82 1033.93 1033.99 1033.75 1033.39 1033.09 1033.01 1032.75 1032.33 1031.89 1031.53 1031.13 1030.67 1030.10 1029.30 1028.58
1026.85 1027.22 1028.03 1028.46 1027.90 1026.30 1025.17 1025.44 1025.54 1025.49 1025.59 1026.29 1027.06 1028.13 1029.14 1030.14 1030.83 1031.67 1032.05 1032.79 1033.60 1033.89 1034.29 1034.88 1035.12 1034.97 1034.83 1034.44 1034.49 1034.43 1034.43 1034.19 1033.86 1033.61 1033.65 1033.39 1032.89 1032.50 1032.16 1031.67 1031.17 1030.57 1029.98 1029.34
1027.48 1027.55 1027.61 1028.83 1028.36 1026.66 1025.16 1025.39 1025.36 1025.75 1025.88 1026.40 1027.24 1028.18 1029.16 1030.01 1030.28 1030.90 1031.99 1032.68 1033.71 1034.34 1034.83 1035.04 1035.20 1035.17 1035.38 1035.18 1035.12 1034.70 1034.75 1034.59 1034.45 1034.25 1034.28 1033.92 1033.46 1033.16 1032.84 1032.36 1031.76 1031.06 1030.31 1029.67
1027.67 1027.85 1027.79 1028.39 1028.07 1026.44 1025.40 1025.68 1025.96 1026.37 1026.53 1026.81 1027.84 1028.69 1029.74 1030.14 1030.74 1031.40 1032.59 1033.38 1033.96 1034.45 1035.15 1035.44 1035.56 1035.25 1035.48 1035.47 1035.57 1035.20 1035.16 1035.08 1035.13 1034.94 1034.75 1034.33 1033.96 1033.57 1033.48 1033.00 1032.28 1031.55 1030.78 1030.07
1026.54 1027.11 1027.57 1028.08 1027.97 1026.42 1025.54 1026.21 1026.48 1026.32 1026.84 1027.35 1028.24 1029.13 1030.00 1030.78 1031.33 1031.79 1032.60 1033.59 1034.31 1034.85 1035.40 1035.76 1035.77 1035.79 1035.81 1035.86 1035.86 1035.76 1035.59 1035.57 1035.44 1035.29 1035.21 1034.75 1034.35 1034.04 1033.81 1033.47 1032.90 1032.18 1031.39 1030.60
1026.20 1025.78 1026.28 1026.55 1025.83 1025.55 1025.87 1026.12 1026.58 1026.91 1027.29 1027.95 1028.43 1029.34 1030.05 1030.80 1031.55 1032.30 1033.01 1033.83 1034.66 1035.41 1035.55 1035.93 1036.04 1036.16 1036.34 1036.24 1036.30 1036.38 1036.20 1035.90 1035.83 1035.62 1035.58 1035.16 1034.71 1034.44 1034.17 1033.84 1033.47 1032.79 1032.11 1031.39
1025.78 1025.74 1025.95 1026.09 1025.23 1025.74 1026.14 1026.63 1027.03 1027.56 1027.97 1028.61 1029.20 1029.75 1030.36 1031.28 1031.87 1032.64 1033.33 1034.13 1034.69 1035.78 1036.39 1036.34 1036.25 1036.64 1036.91 1036.84 1036.92 1037.03 1036.66 1036.27 1036.11 1035.99 1035.78 1035.49 1035.27 1034.93 1034.65 1034.47 1034.18 1033.76 1033.12 1032.50
1025.72 1025.73 1025.57 1025.63 1025.76 1026.38 1026.30 1026.55 1027.36 1028.25 1028.75 1029.20 1029.67 1029.90 1030.42 1031.19 1032.07 1032.88 1033.68 1034.30 1035.02 1035.93 1036.71 1036.86 1036.88 1037.33 1037.62 1037.51 1037.38 1037.34 1036.94 1036.48 1036.16 1036.23 1036.16 1035.96 1035.77 1035.55 1035.25 1035.06 1035.19 1034.79 1034.61 1034.18
1025.30 1024.82 1025.23 1024.92 1024.89 1025.52 1025.94 1026.29 1027.29 1028.13 1028.60 1029.32 1029.84 1030.27 1031.01 1031.34 1032.24 1033.11 1034.05 1034.88 1035.61 1036.28 1036.92 1037.32 1037.64 1037.94 1038.01 1037.90 1037.70 1037.66 1037.16 1036.62 1036.55 1036.52 1036.61 1036.72 1036.40 1036.22 1035.93 1035.67 1035.36 1035.60 1035.43 1035.02
Thickness
5730 5725 5709 5706 5707 5703 5694 5683 5670 5659 5664 5653 5640 5638 5635 5636 5638 5636 5633 5630 5626 5623 5620 5617 5613 5609 5603 5595 5587 5581 5576 5569 5562 5558 5553 5549 5541 5533 5526 5518 5509 5506 5499 5499
5718 5701 5700 5700 5698 5694 5687 5672 5658 5656 5658 5650 5634 5629 5628 5629 5625 5622 5618 5615 5611 5608 5606 5603 5599 5594 5587 5578 5571 5565 5555 5546 5538 5529 5521 5514 5508 5502 5494 5491 5483 5477 5475 5468
5704 5699 5698 5693 5686 5684 5674 5670 5660 5657 5647 5643 5636 5622 5623 5623 5617 5612 5606 5601 5598 5595 5593 5590 5586 5580 5572 5564 5555 5547 5536 5523 5513 5501 5493 5485 5479 5474 5466 5457 5451 5447 5444 5440
5695 5695 5689 5684 5678 5676 5666 5665 5661 5652 5650 5640 5640 5629 5622 5621 5608 5602 5595 5591 5586 5582 5578 5575 5569 5563 5554 5542 5529 5521 5512 5499 5488 5475 5466 5456 5447 5441 5431 5423 5416 5414 5412 5410
5681 5683 5679 5674 5670 5670 5663 5658 5655 5652 5646 5641 5634 5634 5624 5620 5603 5591 5584 5579 5573 5567 5563 5559 5553 5544 5536 5522 5508 5500 5490 5476 5465 5453 5442 5432 5420 5404 5398 5393 5393 5391 5391 5391
5676 5681 5675 5671 5667 5663 5656 5651 5644 5638 5636 5635 5630 5631 5620 5606 5590 5581 5575 5569 5562 5557 5550 5543 5536 5529 5519 5504 5493 5484 5475 5459 5445 5431 5417 5403 5391 5383 5377 5375 5374 5376 5378 5375
5665 5664 5665 5664 5662 5658 5655 5648 5642 5637 5634 5637 5622 5623 5602 5583 5576 5571 5565 5559 5552 5544 5537 5532 5524 5517 5502 5490 5476 5467 5457 5441 5426 5411 5394 5380 5369 5364 5362 5362 5362 5363 5361 5359
5647 5645 5651 5656 5651 5645 5640 5638 5635 5626 5625 5624 5614 5616 5599 5577 5568 5561 5555 5549 5540 5530 5523 5514 5507 5501 5490 5474 5461 5450 5437 5421 5404 5389 5375 5364 5359 5357 5354 5351 5349 5345 5341 5340
5639 5639 5643 5644 5643 5642 5633 5628 5623 5610 5595 5602 5608 5587 5574 5567 5560 5553 5546 5538 5528 5518 5510 5500 5492 5486 5479 5462 5444 5431 5418 5400 5383 5373 5364 5359 5354 5349 5345 5340 5335 5331 5327 5327
5628 5634 5631 5635 5636 5632 5632 5623 5618 5608 5603 5600 5605 5595 5603 5564 5554 5546 5537 5525 5514 5506 5497 5488 5480 5471 5460 5449 5431 5415 5398 5380 5368 5362 5356 5351 5347 5342 5335 5328 5323 5319 5316 5315
5624 5623 5623 5621 5615 5616 5619 5614 5601 5600 5594 5597 5591 5601 5564 5550 5538 5530 5521 5509 5500 5493 5484 5476 5468 5458 5450 5440 5420 5398 5380 5370 5362 5353 5348 5344 5339 5332 5325 5318 5313 5309 5307 5308
5610 5608 5610 5604 5603 5602 5604 5600 5599 5601 5588 5575 5571 5588 5554 5539 5530 5517 5507 5495 5486 5479 5473 5469 5459 5449 5438 5421 5404 5387 5370 5363 5354 5347 5342 5338 5332 5323 5316 5310 5305 5300 5300 5301
5607 5602 5605 5604 5600 5599 5595 5590 5584 5578 5574 5577 5574 5583 5542 5529 5520 5506 5495 5485 5476 5471 5466 5459 5450 5441 5421 5407 5391 5378 5364 5356 5348 5343 5338 5333 5325 5316 5308 5302 5297 5294 5293 5294
5600 5592 5602 5607 5598 5590 5586 5579 5578 5578 5572 5576 5579 5567 5534 5524 5509 5496 5483 5473 5470 5460 5451 5444 5438 5423 5409 5396 5379 5367 5356 5349 5343 5338 5333 5325 5316 5309 5303 5297 5291 5288 5288 5288
5594 5595 5584 5585 5581 5578 5577 5578 5572 5569 5571 5565 5567 5556 5539 5515 5501 5486 5474 5468 5463 5450 5442 5433 5424 5410 5399 5384 5372 5361 5350 5342 5336 5330 5323 5315 5309 5303 5297 5291 5287 5284 5283 5284
5580 5584 5577 5580 5567 5565 5569 5574 5567 5559 5556 5555 5549 5546 5524 5506 5491 5478 5469 5462 5453 5444 5435 5420 5411 5399 5390 5378 5368 5358 5349 5337 5330 5324 5318 5311 5305 5298 5293 5287 5283 5280 5278 5279
5576 5573 5570 5580 5561 5567 5576 5574 5562 5558 5552 5554 5546 5542 5515 5498 5483 5469 5461 5451 5443 5437 5426 5412 5402 5391 5382 5373 5365 5353 5343 5334 5326 5320 5313 5306 5299 5294 5288 5284 5280 5277 5274 5276
5567 5564 5553 5561 5557 5562 5572 5561 5558 5554 5545 5534 5526 5517 5504 5487 5473 5462 5457 5447 5434 5427 5415 5400 5389 5381 5373 5366 5358 5346 5336 5328 5321 5315 5307 5300 5295 5291 5286 5281 5277 5275 5275 5276
5556 5554 5530 5538 5538 5558 5562 5549 5550 5550 5549 5530 5523 5506 5489 5474 5466 5455 5450 5436 5422 5414 5404 5390 5379 5372 5362 5358 5349 5341 5331 5324 5318 5311 5302 5296 5293 5289 5283 5279 5276 5275 5274 5275
5538 5538 5549 5502 5527 5547 5559 5546 5542 5539 5540 5519 5513 5501 5484 5470 5485 5463 5441 5430 5414 5402 5391 5382 5373 5364 5352 5348 5340 5337 5327 5320 5313 5307 5299 5295 5292 5287 5281 5278 5276 5276 5276 5275
5535 5531 5535 5508 5517 5538 5542 5535 5528 5530 5538 5509 5499 5487 5470 5469 5459 5444 5426 5415 5404 5395 5382 5372 5362 5358 5348 5343 5334 5331 5324 5316 5309 5304 5297 5294 5290 5286 5279 5276 5275 5275 5275 5275
5540 5526 5522 5510 5505 5522 5531 5523 5526 5522 5498 5498 5485 5472 5459 5448 5440 5433 5419 5406 5395 5384 5373 5363 5356 5349 5342 5336 5329 5324 5319 5313 5307 5303 5295 5293 5289 5284 5278 5274 5272 5271 5271 5272
5536 5537 5531 5527 5534 5522 5516 5511 5498 5496 5495 5482 5475 5462 5453 5443 5432 5420 5409 5397 5385 5372 5366 5355 5348 5340 5333 5329 5322 5316 5312 5308 5304 5299 5292 5290 5287 5281 5275 5270 5267 5266 5265 5264
5521 5513 5522 5518 5523 5511 5503 5492 5488 5483 5478 5467 5460 5452 5444 5431 5424 5409 5399 5388 5378 5362 5350 5345 5341 5331 5323 5320 5314 5307 5305 5303 5300 5296 5291 5287 5282 5278 5272 5266 5261 5257 5256 5254
5516 5507 5511 5510 5503 5492 5495 5489 5479 5467 5461 5454 5448 5444 5436 5425 5412 5401 5389 5380 5368 5354 5341 5334 5329 5320 5312 5310 5307 5302 5302 5300 5299 5294 5289 5283 5278 5273 5268 5263 5255 5252 5246 5241
5501 5508 5510 5520 5512 5503 5500 5488 5471 5461 5454 5446 5440 5433 5423 5416 5403 5393 5380 5367 5355 5344 5333 5324 5317 5310 5306 5303 5301 5297 5297 5297 5294 5291 5284 5277 5274 5269 5264 5259 5254 5245 5239 5233